Miscellaneous Local Product
Issued by NWS Hastings, NE

Home | Current Version | Previous Version | Graphics & Text | Print | Product List | Glossary On
Versions: 1 2 3 4 5 6 7 8 9 10 11 12 13 14 15 16 17 18 19 20 21 22 23 24 25 26 27 28 29 30 31 32 33 34 35 36 37 38 39 40 41 42 43 44 45 46 47 48 49 50
000
AXUS43 KGID 050202
MISGRI

GID CWA HOURLY WEATHER ROUNDUP
NATIONAL WEATHER SERVICE HASTINGS NE
800 PM CST WED MAR 04 2015

NOTE: "FAIR" INDICATES FEW OR NO CLOUDS BELOW 12,000 FEET WITH NO
SIGNIFICANT WEATHER AND/OR OBSTRUCTIONS TO VISIBILITY.

...SOUTH CENTRAL NEBRASKA...

CITY           SKY/WX    TMP DP  RH WIND       PRES   REMARKS
GRAND ISLAND   CLEAR     14   2  58 N8        30.37R WCI   3
HASTINGS       CLEAR     16   2  54 NE5       30.34R WCI   9
KEARNEY        FAIR      14   1  57 NE9       30.33R WCI   2
ORD            CLEAR     13  -3  49 N6        30.34R WCI   4
YORK           CLEAR     18   1  49 N14       30.38R WCI   4
AURORA         CLEAR     14   2  60 N9        30.37R WCI   1
LEXINGTON      CLEAR     17   4  56 NE7       30.31R WCI   7
HOLDREGE       PTCLDY    16   5  60 NE7       30.31R WCI   6
HEBRON         CLEAR     20   4  49 CALM      30.38R

...NEBRASKA PANHANDLE...

CITY           SKY/WX    TMP DP  RH WIND       PRES   REMARKS
CHADRON        CLOUDY    10   5  80 W7        30.23R WCI  -1
ALLIANCE       CLEAR     15   1  53 NW9       30.19R WCI   3
SCOTTSBLUFF    CLEAR     17   4  56 NW5       30.20R WCI  10
SIDNEY         CLEAR     15   4  61 NW6       30.20R WCI   6

...WESTERN AND NORTH CENTRAL NEBRASKA...

CITY           SKY/WX    TMP DP  RH WIND       PRES   REMARKS
VALENTINE      CLEAR      9   1  70 N6        30.30R WCI  -1
AINSWORTH      CLEAR      8   0  70 N5        30.30R WCI  -1
ONEILL         CLEAR      8  -1  65 N3        30.35R
BROKEN BOW     CLEAR     11  -5  48 N6        30.30R WCI   1
IMPERIAL         N/A     22   5  48 N3        30.26R
NORTH PLATTE   CLEAR     16  -2  45 N5        30.27R WCI   9
MCCOOK         MOCLDY    23   3  42 NW5       30.30R WCI  17

...EASTERN NEBRASKA...

CITY           SKY/WX    TMP DP  RH WIND       PRES   REMARKS
NORFOLK        CLEAR     12  -2  53 N8        30.39R WCI   0
SO SIOUX CITY  CLEAR     10  -3  55 N9        30.45R WCI  -3
TEKAMAH        CLEAR     14  -2  49 N13       30.44R WCI   0
COLUMBUS       CLEAR     16  -8  35 N10       30.41R WCI   3
ALBION         CLEAR     13  -4  45 N8        30.38R WCI   2
OMAHA EPPLEY   PTCLDY    17   0  47 N12       30.41R WCI   4
OFFUTT AFB     PTCLDY    19  -2  39 N12G17    30.40R WCI   6
MILLARD        CLEAR     20  -2  38 N5        30.41R WCI  13
LINCOLN        CLEAR     14  -1  51 N10       30.41R WCI   1
NEBRASKA CITY  CLEAR     20  -5  33 N8        30.39R WCI  10
BEATRICE       CLEAR     19   2  47 N6        30.39R WCI  11
FALLS CITY     PTCLDY    21   0  39 NW7       30.40R WCI  12

...NORTHERN KANSAS...

CITY           SKY/WX    TMP DP  RH WIND       PRES   REMARKS
GOODLAND       CLEAR     19   9  65 CALM      30.26R
HILL CITY      CLEAR     17   2  51 NW5       30.32R WCI  10
NORTON         CLEAR     18  -2  41 NW8       30.30R WCI   7
PHILLIPSBURG   CLEAR     27   9  46 CALM      30.34R
SMITH CENTER   CLEAR     23   3  42 NE3       30.35R
BELOIT         CLEAR     16   3  57 NE3       30.36S
HAYS           CLEAR     21   1  42 NE6       30.33S WCI  14
RUSSELL        CLEAR     22   2  42 N6        30.32S WCI  14
CONCORDIA      CLEAR     24   5  44 CALM      30.36R
SALINA         MOCLDY    27   4  37 N7        30.36S WCI  19
TOPEKA         CLOUDY    27   8  44 N7        30.37R WCI  19



USA.gov is the U.S. government's official web portal to all federal, state and local government web resources and services.